Flag for Poland Weather past 2 weeks in Opole, Poland

Now
64 °F

Scattered clouds.


Feels Like: 64 °F
Forecast: 49 / 59 °F
Wind: 14 mph from Northwest

Location: Wroclaw Ii

Current Time: May 26, 2015 at 12:32:13 PM

Latest Report: May 26, 2015 at 12:00 PM


Visibility: N/A

Pressure: 29.92 "Hg

Humidity: 60%

Dew point: 50 °F

Location of OpoleLocation

Historic Weather in Opole — Graph

°F

Opole temperature yesterday

Maximum temperature yesterday: 73 °F (at 3:30 PM)
Minimum temperature yesterday: 46 °F (at 5:00 AM)
Average temperature yesterday: 61 °F

Past Weeks' High & Low Weather Summary

 TemperatureHumidityPressure
High77 °F (May 12, 1:00 PM)100% (May 25, 3:00 AM)30.42 "Hg (May 25, 3:00 AM)
Low39 °F (May 15, 3:00 AM)28% (May 12, 1:00 PM)29.68 "Hg (May 19, 4:00 AM)
Average58 °F66%30.04 "Hg
* Reported May 11 11:00 AM — May 26 11:30 AM, Opole, Weather by CustomWeather, © 2015

Note: Actual official high and low records may vary slightly from our data, if they occured in-between our weather recording intervals... More about our weather records

Advertising

Opole weather history for previous 24 hours

 ConditionsComfort  
Time TempWeatherWind HumidityBarometerVisibility
11:30 AM
Tue, May 26
63 °FScattered clouds.14 mph64%29.92 "HgN/A
11:00 AM63 °FScattered clouds.14 mph64%29.89 "HgN/A
10:30 AM63 °FPassing clouds.13 mph64%29.89 "HgN/A
10:00 AM61 °FPassing clouds.14 mph68%29.89 "HgN/A
9:30 AM59 °FPassing clouds.13 mph72%29.89 "HgN/A
9:00 AM57 °FSunny.13 mph77%29.89 "Hg10 mi
8:30 AM57 °FSunny.13 mph77%29.86 "Hg10 mi
8:00 AM55 °FPassing clouds.12 mph82%29.86 "HgN/A
7:30 AM55 °FScattered clouds.13 mph88%29.86 "HgN/A
7:00 AM55 °FPartly sunny.12 mph88%29.86 "HgN/A
6:30 AM55 °FLight rain. Partly sunny.12 mph94%29.86 "Hg5 mi
6:00 AM57 °FLight rain. Partly sunny.12 mph88%29.83 "Hg5 mi
5:30 AM57 °FPassing clouds.9 mph88%29.83 "HgN/A
5:00 AM57 °FLight rain. Clear.6 mph88%29.83 "HgN/A
4:30 AM57 °FLight rain. Clear.6 mph88%29.83 "HgN/A
4:00 AM55 °FPassing clouds.1 mph94%29.83 "HgN/A
3:30 AM57 °FPassing clouds.6 mph88%29.83 "HgN/A
3:00 AM57 °FClear.3 mph88%29.83 "Hg10 mi
2:30 AM59 °FClear.6 mph82%29.83 "Hg10 mi
2:00 AM59 °FClear.6 mph82%29.83 "Hg10 mi
1:30 AM59 °FClear.3 mph82%29.83 "Hg10 mi
1:00 AM57 °FClear.5 mph88%29.83 "Hg10 mi
12:30 AM59 °FClear.2 mph82%29.83 "Hg10 mi
12:00 AM59 °FClear.6 mph82%29.83 "Hg10 mi
11:30 PM
Mon, May 25
59 °FClear.6 mph82%29.86 "Hg10 mi
10:30 PM59 °FClear.2 mph82%29.86 "Hg10 mi
10:00 PM59 °FClear.3 mph82%29.86 "Hg10 mi
9:30 PM61 °FSunny.5 mph83%29.86 "Hg10 mi
9:00 PM61 °FSunny.3 mph83%29.86 "Hg10 mi
8:30 PM63 °FSunny.3 mph73%29.86 "Hg10 mi
8:00 PM63 °FSunny.7 mph73%29.86 "Hg10 mi
7:30 PM64 °FSunny.9 mph68%29.86 "Hg10 mi
7:00 PM68 °FSunny.13 mph64%29.86 "Hg10 mi
6:30 PM70 °FSunny.6 mph57%29.86 "Hg10 mi
6:00 PM73 °FSunny.6 mph38%29.86 "Hg10 mi
5:30 PM73 °FSunny.3 mph38%29.86 "Hg10 mi
5:00 PM73 °FPassing clouds.3 mph41%29.86 "HgN/A
4:30 PM73 °FPassing clouds.6 mph38%29.86 "HgN/A
4:00 PM73 °FPassing clouds.6 mph41%29.86 "HgN/A
3:30 PM73 °FPassing clouds.3 mph38%29.89 "HgN/A
3:00 PM72 °FPassing clouds.3 mph44%29.89 "HgN/A
2:30 PM72 °FPassing clouds.5 mph44%29.89 "HgN/A
2:00 PM72 °FPassing clouds.5 mph47%29.92 "HgN/A
1:30 PM72 °FPassing clouds.2 mph53%29.92 "HgN/A
1:00 PM70 °FPassing clouds.5 mph50%29.95 "HgN/A
12:30 PM70 °FPassing clouds.5 mph50%29.95 "HgN/A
12:00 PM68 °FPassing clouds.6 mph56%29.95 "HgN/A
Weather by CustomWeather, © 2015

See weather overviewHow to use our weather pages